Flag for Germany Weather past 2 weeks in Buchholz in der Nordheide, Lower Saxony, Germany

Now
52 °F

Partly cloudy.


Feels Like: 51 °F
Forecast: 48 / 58 °F
Wind: 5 mph from Southwest

Location: Hamburg-Fuhlsbuettel

Current Time: Oct 26, 2014 at 1:11:28 AM

Latest Report: Oct 26, 2014 at 12:20 AM


Visibility: 4 mi

Pressure: 30.12 "Hg

Humidity: 100%

Dew point: 52 °F

Location of Buchholz in der NordheideLocation

Historic Weather in Buchholz in der Nordheide — Graph

°F

Buchholz in der Nordheide temperature yesterday

Maximum temperature yesterday: 55 °F (at 3:50 PM)
Minimum temperature yesterday: 50 °F (at 4:50 AM)
Average temperature yesterday: 52 °F

Past Weeks' High & Low Weather Summary

 TemperatureHumidityPressure
High72 °F (Oct 19, 1:50 PM)100% (Oct 11, 1:50 AM)30.18 "Hg (Oct 11, 1:50 AM)
Low48 °F (Oct 11, 5:20 AM)59% (Oct 14, 3:50 PM)29.36 "Hg (Oct 21, 6:20 PM)
Average56 °F88%29.86 "Hg
* Reported Oct 10 11:50 PM — Oct 25 11:50 PM, Buchholz in der Nordheide, Weather by CustomWeather, © 2014

Note: Actual official high and low records may vary slightly from our data, if they occured in-between our weather recording intervals... More about our weather records

Advertising

Buchholz in der Nordheide weather history for previous 24 hours

 ConditionsComfort  
Time TempWeatherWind HumidityBarometerVisibility
11:50 PM
Oct 25
54 °FPartly cloudy.6 mph100%30.12 "Hg4 mi
11:20 PM52 °FPassing clouds.6 mph100%30.12 "Hg4 mi
10:50 PM52 °FPassing clouds.7 mph100%30.12 "Hg4 mi
10:20 PM52 °FFog.5 mph94%30.12 "Hg5 mi
9:50 PM52 °FClear.6 mph94%30.12 "Hg10 mi
9:20 PM52 °FPassing clouds.7 mph94%30.09 "Hg6 mi
8:50 PM54 °FPassing clouds.8 mph94%30.09 "Hg6 mi
8:20 PM55 °FPassing clouds.9 mph94%30.09 "Hg4 mi
7:50 PM55 °FPassing clouds.7 mph94%30.09 "Hg4 mi
7:20 PM54 °FClear.6 mph100%30.09 "Hg4 mi
6:50 PM54 °FClear.7 mph94%30.07 "Hg4 mi
6:20 PM54 °FClear.7 mph94%30.07 "Hg4 mi
5:50 PM54 °FPartly sunny.8 mph100%30.07 "Hg4 mi
5:20 PM55 °FPartly sunny.8 mph94%30.07 "Hg4 mi
4:50 PM55 °FPartly sunny.8 mph94%30.07 "Hg4 mi
4:20 PM55 °FPartly sunny.8 mph94%30.07 "Hg4 mi
3:50 PM55 °FFog.7 mph94%30.04 "Hg3 mi
3:20 PM54 °FFog.8 mph100%30.04 "Hg2 mi
2:50 PM54 °FFog.7 mph94%30.04 "Hg2 mi
2:20 PM54 °FFog.6 mph94%30.04 "Hg1 mi
1:50 PM54 °FDrizzle. Fog.7 mph94%30.04 "Hg2 mi
1:20 PM54 °FFog.8 mph94%30.04 "Hg3 mi
12:50 PM52 °FFog.9 mph100%30.04 "Hg3 mi
12:20 PM52 °FCool.10 mph100%30.04 "HgN/A
11:50 AM52 °FDrizzle. Partly sunny.10 mph94%30.04 "Hg4 mi
11:20 AM52 °FDrizzle. Broken clouds.8 mph94%30.04 "Hg3 mi
10:50 AM52 °FDrizzle. Partly sunny.7 mph94%30.04 "Hg2 mi
10:20 AM50 °FDrizzle. Partly sunny.8 mph100%30.01 "Hg4 mi
9:50 AM50 °FDrizzle. Partly sunny.9 mph100%30.01 "Hg4 mi
9:20 AM50 °FDrizzle. Partly sunny.9 mph100%30.01 "Hg4 mi
8:50 AM50 °FPassing clouds.8 mph94%30.01 "Hg3 mi
8:20 AM50 °FPassing clouds.10 mph94%30.01 "Hg2 mi
7:50 AM50 °FLight rain. Passing clouds.10 mph94%30.01 "HgN/A
7:20 AM50 °FLight rain. Passing clouds.12 mph94%30.01 "HgN/A
6:50 AM50 °FLight rain. Partly cloudy.10 mph94%30.01 "HgN/A
6:20 AM50 °FLight rain. Overcast.12 mph94%30.01 "HgN/A
5:50 AM50 °FLight rain. Mostly cloudy.9 mph94%30.01 "HgN/A
5:20 AM50 °FLight rain. Passing clouds.9 mph88%30.01 "HgN/A
4:50 AM50 °FLight rain. Passing clouds.10 mph88%30.01 "HgN/A
4:20 AM52 °FLight rain. Passing clouds.12 mph82%30.01 "HgN/A
3:50 AM52 °FPassing clouds.12 mph82%30.01 "HgN/A
3:20 AM52 °FLight rain. Partly cloudy.13 mph82%30.01 "HgN/A
2:50 AM52 °FPartly cloudy.12 mph82%30.01 "HgN/A
2:20 AM52 °FPassing clouds.13 mph82%30.04 "HgN/A
1:50 AM52 °FPartly cloudy.12 mph82%30.04 "HgN/A
1:20 AM52 °FPartly cloudy.10 mph82%30.04 "HgN/A
Weather by CustomWeather, © 2014

See weather overviewHow to use our weather pages